Location: Marlborough
(51.4223°N, 1.7415°W)
Time: 06:21:10
(UTC+01:00)

Envisat - Pass Details

Date: 23 May 2024
Orbit: 762 x 764 km, 98.3° (Epoch: 13 June)

Event Time Altitude Azimuth Distance (km) Brightness Sun altitude
Rises 04:10:18 0° 18° (NNE) 3,241 7.6 -7.2°
Reaches altitude 10° 04:12:41 10° 23° (NNE) 2,310 6.8 -6.9°
Maximum altitude 04:17:39 52° 100° (E) 949 3.8 -6.4°
Drops below altitude 10° 04:22:35 10° 176° (S) 2,292 5.1 -5.8°
Sets 04:24:56 0° 182° (S) 3,213 5.8 -5.6°
